When you browse on this site, cookies collect data to enhance your experience and personalize the content and advertising you see.
Visit our Privacy Policy to learn more. By continuing to use the site, you agree to this use of cookies and data.
  • In Hungary
  • List of Countries
  • For 7 days
  • Water Temperature
  • Satellite Maps
  • Weather Map
  • News
  • Weather Widgets
  • user-avatar
    Login

    Hourly Weather Pylaia

    Today, 10 December, Monday

    Time Temperature Precipitation Wind Pressure Humidity
    00:00 +9°C° 0 mm 1 mps 749 mmHg 73%
    01:00 +9°C° 0 mm 1 mps 749 mmHg 74%
    02:00 +9°C° 0 mm 1 mps 748 mmHg 75%
    03:00 +9°C° 0.5 mm 1 mps 748 mmHg 77%
    04:00 +9°C° 0.5 mm 1 mps 747 mmHg 80%
    05:00 +9°C° 0.5 mm 1 mps 747 mmHg 82%
    06:00 +9°C° 0.4 mm 1 mps 746 mmHg 83%
    07:00 +9°C° 0.4 mm 1 mps 746 mmHg 84%
    08:00 +9°C° 0.4 mm 1 mps 746 mmHg 85%
    09:00 +8°C° 0.3 mm 2 mps 746 mmHg 84%
    10:00 +8°C° 0.3 mm 3 mps 746 mmHg 82%
    11:00 +9°C° 0.3 mm 3 mps 746 mmHg 81%
    12:00 +8°C° 0.4 mm 4 mps 746 mmHg 76%
    13:00 +8°C° 0.4 mm 5 mps 746 mmHg 72%
    14:00 +9°C° 0.4 mm 7 mps 746 mmHg 67%
    15:00 +9°C° 0 mm 6 mps 747 mmHg 67%
    16:00 +8°C° 0 mm 6 mps 747 mmHg 67%
    17:00 +8°C° 0 mm 5 mps 748 mmHg 67%
    18:00 +7°C° 0 mm 5 mps 748 mmHg 68%
    19:00 +7°C° 0 mm 5 mps 749 mmHg 70%
    20:00 +7°C° 0 mm 5 mps 749 mmHg 71%
    21:00 +6°C° 0 mm 5 mps 750 mmHg 71%
    22:00 +6°C° 0 mm 5 mps 750 mmHg 72%
    23:00 +4°C° 0 mm 6 mps 751 mmHg 72%

    Tomorrow, 11 December, Tuesday

    Time Temperature Precipitation Wind Pressure Humidity
    00:00 +4°C° 0 mm 6 mps 751 mmHg 71%
    01:00 +4°C° 0 mm 6 mps 751 mmHg 70%
    02:00 +3°C° 0 mm 6 mps 752 mmHg 70%
    03:00 +3°C° 0 mm 6 mps 752 mmHg 69%
    04:00 +2°C° 0 mm 5 mps 752 mmHg 69%
    05:00 +2°C° 0 mm 5 mps 752 mmHg 69%
    06:00 +2°C° 0 mm 5 mps 752 mmHg 69%
    07:00 +1°C° 0 mm 5 mps 752 mmHg 69%
    08:00 +1°C° 0 mm 5 mps 753 mmHg 69%
    09:00 +2°C° 0 mm 5 mps 753 mmHg 63%
    10:00 +4°C° 0 mm 6 mps 754 mmHg 57%
    11:00 +5°C° 0 mm 6 mps 754 mmHg 51%
    12:00 +5°C° 0 mm 6 mps 754 mmHg 49%
    13:00 +7°C° 0 mm 6 mps 754 mmHg 46%
    14:00 +7°C° 0 mm 6 mps 753 mmHg 44%
    15:00 +5°C° 0 mm 6 mps 754 mmHg 47%
    16:00 +5°C° 0 mm 5 mps 754 mmHg 50%
    17:00 +3°C° 0 mm 5 mps 754 mmHg 53%
    18:00 +4°C° 0 mm 4 mps 755 mmHg 55%
    19:00 +3°C° 0 mm 4 mps 755 mmHg 57%
    20:00 +3°C° 0 mm 4 mps 756 mmHg 60%
    21:00 +1°C° 0 mm 4 mps 756 mmHg 60%
    22:00 +2°C° 0 mm 3 mps 756 mmHg 60%
    23:00 +2°C° 0 mm 3 mps 756 mmHg 61%

    Day after tomorrow, 12 December, Wednesday

    Time Temperature Precipitation Wind Pressure Humidity
    00:00 +2°C° 0 mm 3 mps 756 mmHg 60%
    01:00 +2°C° 0 mm 3 mps 756 mmHg 59%
    02:00 +2°C° 0 mm 3 mps 756 mmHg 59%
    03:00 +2°C° 0 mm 3 mps 756 mmHg 59%
    04:00 +2°C° 0 mm 3 mps 757 mmHg 58%
    05:00 +2°C° 0 mm 3 mps 757 mmHg 58%
    06:00 +2°C° 0 mm 3 mps 757 mmHg 59%
    07:00 +2°C° 0 mm 3 mps 757 mmHg 60%
    08:00 +2°C° 0 mm 3 mps 758 mmHg 60%
    09:00 +3°C° 0 mm 3 mps 758 mmHg 56%
    10:00 +4°C° 0 mm 3 mps 758 mmHg 52%
    11:00 +5°C° 0 mm 3 mps 758 mmHg 48%
    12:00 +7°C° 0 mm 3 mps 758 mmHg 45%
    13:00 +7°C° 0 mm 3 mps 758 mmHg 43%
    14:00 +8°C° 0 mm 3 mps 757 mmHg 40%
    15:00 +7°C° 0 mm 3 mps 757 mmHg 43%
    16:00 +5°C° 0 mm 3 mps 757 mmHg 46%
    17:00 +5°C° 0 mm 2 mps 757 mmHg 49%
    18:00 +5°C° 0 mm 2 mps 758 mmHg 51%
    19:00 +4°C° 0 mm 2 mps 758 mmHg 53%
    20:00 +4°C° 0 mm 2 mps 759 mmHg 55%
    21:00 +4°C° 0 mm 2 mps 759 mmHg 56%
    22:00 +3°C° 0 mm 2 mps 759 mmHg 56%
    23:00 +4°C° 0 mm 1 mps 759 mmHg 57%

    13 December, Thursday

    Time Temperature Precipitation Wind Pressure Humidity
    00:00 +4°C° 0 mm 1 mps 759 mmHg 56%
    01:00 +4°C° 0 mm 1 mps 759 mmHg 56%
    02:00 +4°C° 0 mm 1 mps 759 mmHg 56%
    03:00 +4°C° 0 mm 1 mps 759 mmHg 55%
    04:00 +4°C° 0 mm 1 mps 759 mmHg 54%
    05:00 +4°C° 0 mm 1 mps 759 mmHg 54%
    06:00 +4°C° 0 mm 1 mps 759 mmHg 53%
    07:00 +4°C° 0 mm 1 mps 759 mmHg 53%
    08:00 +4°C° 0 mm 1 mps 759 mmHg 53%
    09:00 +5°C° 0 mm 1 mps 759 mmHg 50%
    10:00 +6°C° 0 mm 1 mps 759 mmHg 48%
    11:00 +7°C° 0 mm 1 mps 759 mmHg 46%
    12:00 +8°C° 0.1 mm 1 mps 759 mmHg 47%
    13:00 +8°C° 0.1 mm 1 mps 758 mmHg 47%
    14:00 +9°C° 0.1 mm 1 mps 758 mmHg 48%
    15:00 +8°C° 0.1 mm 1 mps 757 mmHg 52%
    16:00 +8°C° 0.1 mm 1 mps 757 mmHg 55%
    17:00 +7°C° 0.1 mm 1 mps 757 mmHg 59%
    18:00 +7°C° 0.1 mm 1 mps 757 mmHg 60%
    19:00 +7°C° 0.1 mm 1 mps 757 mmHg 61%
    20:00 +7°C° 0.1 mm 1 mps 757 mmHg 62%
    21:00 +6°C° 0 mm 1 mps 757 mmHg 64%
    22:00 +6°C° 0 mm 1 mps 757 mmHg 65%
    23:00 +6°C° 0 mm 1 mps 756 mmHg 67%

    14 December, Friday

    Time Temperature Precipitation Wind Pressure Humidity
    00:00 +6°C° 0 mm 1 mps 756 mmHg 68%
    01:00 +6°C° 0 mm 1 mps 756 mmHg 69%
    02:00 +6°C° 0 mm 1 mps 755 mmHg 70%
    03:00 +6°C° 0.1 mm 1 mps 755 mmHg 71%
    04:00 +6°C° 0.1 mm 1 mps 754 mmHg 73%
    05:00 +6°C° 0.1 mm 1 mps 754 mmHg 74%
    06:00 +6°C° 0.1 mm 1 mps 754 mmHg 76%
    07:00 +6°C° 0.1 mm 1 mps 754 mmHg 78%
    08:00 +6°C° 0.1 mm 1 mps 754 mmHg 79%
    09:00 +6°C° 0.4 mm 2 mps 753 mmHg 80%
    10:00 +7°C° 0.4 mm 2 mps 753 mmHg 80%
    11:00 +7°C° 0.4 mm 2 mps 753 mmHg 80%
    12:00 +7°C° 1.3 mm 2 mps 752 mmHg 82%
    13:00 +7°C° 1.3 mm 2 mps 751 mmHg 83%
    14:00 +8°C° 1.3 mm 2 mps 750 mmHg 85%
    15:00 +8°C° 1.1 mm 2 mps 749 mmHg 87%
    16:00 +8°C° 1.1 mm 2 mps 749 mmHg 89%
    17:00 +7°C° 1.1 mm 2 mps 748 mmHg 91%
    18:00 +8°C° 0.3 mm 2 mps 748 mmHg 91%
    19:00 +8°C° 0.3 mm 2 mps 748 mmHg 91%
    20:00 +8°C° 0.3 mm 2 mps 748 mmHg 92%
    21:00 +8°C° 0.2 mm 2 mps 748 mmHg 92%
    22:00 +8°C° 0.2 mm 2 mps 748 mmHg 91%
    23:00 +8°C° 0.2 mm 2 mps 748 mmHg 91%

    15 December, Saturday

    Time Temperature Precipitation Wind Pressure Humidity
    00:00 +7°C° 0.4 mm 3 mps 748 mmHg 89%
    01:00 +6°C° 0.4 mm 4 mps 748 mmHg 86%
    02:00 +6°C° 0.4 mm 4 mps 748 mmHg 83%
    03:00 +6°C° 0 mm 5 mps 749 mmHg 82%
    04:00 +5°C° 0 mm 5 mps 749 mmHg 80%
    05:00 +5°C° 0 mm 5 mps 749 mmHg 78%
    06:00 +3°C° 0.1 mm 5 mps 750 mmHg 78%
    07:00 +4°C° 0.1 mm 4 mps 751 mmHg 78%
    08:00 +3°C° 0.1 mm 4 mps 752 mmHg 78%
    09:00 +4°C° 0 mm 4 mps 752 mmHg 73%
    10:00 +5°C° 0 mm 4 mps 753 mmHg 69%
    11:00 +6°C° 0 mm 4 mps 753 mmHg 64%
    12:00 +6°C° 0 mm 4 mps 753 mmHg 62%
    13:00 +7°C° 0 mm 4 mps 753 mmHg 60%
    14:00 +8°C° 0 mm 4 mps 753 mmHg 57%
    15:00 +8°C° 0 mm 3 mps 754 mmHg 60%
    16:00 +7°C° 0 mm 3 mps 754 mmHg 62%
    17:00 +7°C° 0 mm 3 mps 755 mmHg 64%
    18:00 +5°C° 0 mm 3 mps 755 mmHg 66%
    19:00 +4°C° 0 mm 3 mps 756 mmHg 68%
    20:00 +4°C° 0 mm 3 mps 756 mmHg 70%
    21:00 +3°C° 0 mm 3 mps 757 mmHg 71%
    22:00 +3°C° 0 mm 3 mps 757 mmHg 71%
    23:00 +3°C° 0 mm 3 mps 758 mmHg 71%
    Show more